sat.trackr.live / text

‹ back to catalog

TWILIGHT-1 OBJECT Z

NORAD 67386 · 2026-004Z

PAYLOAD ACTIVE UNKNOWN

§ Identity

Operator
Country
TBD
Launch date
2026-01-11
Launch site
AFWTR
Launch vehicle
Mass (kg)
RCS (m²)

External: N2YO · Heavens-Above · Gunter

§ Orbital elements

Epoch: 2026-09-20T12:40:48.957024Z

Period
96.70 min
Inclination
97.8064°
Eccentricity
0.0003250
Mean motion
14.89125021 rev/d
Perigee alt
598.4 km
Apogee alt
602.9 km
Semi-major
6,978.8 km
B*
1.0549e-4
RAAN
260.8977°
Arg perigee
142.4360°
Mean anomaly
217.7085°
Rev number
3,748

§ Raw data

TWILIGHT-1 OBJECT Z1 67386U 26004Z   26263.52834441  .00000940  00000+0  10549-3 0  99962 67386  97.8064 260.8977 0003250 142.4360 217.7085 14.89125021 37480

JSON: /api/v1/satellites/67386 · /tle

For live sub-satellite position, see the globe view (requires WebGL).

§ Visibility from observer

Set your observer location to see the next 7 days of passes ≥ 10°. The values pass through the URL so the page stays shareable.

No JS? Fill the form by hand. The geolocation button needs JavaScript.